DEIMOS-1

Last updated on Mon Sep 21 2026 00:02:45 GMT+0000 (Coordinated Universal Time)

1 35681U 09041A 26263.54836207 .00000522 00000+0 84059-4 0 9999 2 35681 97.7538 56.7211 0000538 143.3198 216.8048 14.75319402920940
UTC large
Height (km)
Speed (km/s)
/
Latitude / Longitude
Inclination (degrees)
Orbital Period (minutes)
Azimuth
Elevation
Range (km)
Doppler Factor

Next 0 passes for location: London (51.5072 / 0.1276)

No passes found over London.
DEIMOS-1